Weather History for KCDH - September, 2013

Change the Weather History Date:

Wednesday, September 11, 2013

  Actual Average (KELD) Record (KELD)
Temperature  
Mean Temperature 84 °F 76 °F  
Max Temperature 98 °F 88 °F 105 °F (1930)
Min Temperature 71 °F 65 °F 49 °F (1976)
Degree Days  
Heating Degree Days 0 0  
Month to date heating degree days 0  
Since 1 July heating degree days 0  
Cooling Degree Days 20 11  
Month to date cooling degree days 141  
Year to date cooling degree days 1868  
Growing Degree Days 34 (Base 50)    
Moisture  
Dew Point 69 °F    
Average Humidity 77    
Maximum Humidity 94    
Minimum Humidity 32    
Precipitation  
Precipitation 0.74 in 0.11 in 1.03 in (1988)
Month to date precipitation 1.11  
Year to date precipitation 35.66  
Snow  
Snow 0.00 in - - ()
Month to date snowfall  
Since 1 July snowfall  
Since 1 September snowfall  
Snow Depth -    
Sea Level Pressure  
Sea Level Pressure 30.08 in    
Wind  
Wind Speed 1 mph (NNE)    
Max Wind Speed 12 mph    
Max Gust Speed 23 mph    
Visibility 5 miles    
Events Rain    
T = Trace of Precipitation, MM = Missing Value Source: NWS Daily Summary

Daily Weather History Graph

Daily Weather History Graph

Search for Another Location

Airport or City:

Trip Planner

Search our weather history database for the weather conditions in past years. The results will help you decide how hot, cold, wet, or windy it might be!

Date:

Astronomy

Sep. 11, 2013 Rise Set
Actual Time 6:51 AM CDT 7:22 PM CDT
Civil Twilight 6:26 AM CDT 7:47 PM CDT
Nautical Twilight 5:57 AM CDT 8:17 PM CDT
Astronomical Twilight 5:27 AM CDT 8:46 PM CDT
Moon 1:02 PM CDT (9/11) 11:37 PM CDT (9/11)
Length of Visible Light 13h 20m
Length of Day
12h 30m
Waxing Crescent, 39% of the Moon is Illuminated
Sep 11
Waxing Crescent
Sep 12
First Quarter
Sep 19
Full
Sep 26
Last Quarter
Oct 4
New

Hourly Weather History & Observations

Time (CDT) Temp. Heat Index Dew Point Humidity Pressure Visibility Wind Dir Wind Speed Gust Speed Precip Events Conditions
12:15 AM 73.4 °F - 69.8 °F 88% 30.08 in 5.0 mi Calm Calm - N/A   Clear
12:35 AM 73.4 °F - 69.8 °F 88% 30.08 in 4.0 mi Calm Calm - N/A   Clear
12:55 AM 73.4 °F - 69.8 °F 88% 30.08 in 5.0 mi Calm Calm - N/A   Clear
1:15 AM 73.4 °F - 68.0 °F 83% 30.08 in 5.0 mi Calm Calm - N/A   Clear
1:35 AM 73.4 °F - 68.0 °F 83% 30.08 in 5.0 mi Calm Calm - N/A   Clear
1:55 AM 71.6 °F - 68.0 °F 88% 30.08 in 5.0 mi Calm Calm - N/A   Clear
2:15 AM 71.6 °F - 68.0 °F 88% 30.08 in 5.0 mi Calm Calm - N/A   Clear
2:35 AM 71.6 °F - 68.0 °F 88% 30.08 in 4.0 mi Calm Calm - N/A   Clear
2:55 AM 71.6 °F - 68.0 °F 88% 30.08 in 4.0 mi Calm Calm - N/A   Clear
3:15 AM 71.6 °F - 68.0 °F 88% 30.08 in 6.0 mi Calm Calm - N/A   Clear
3:35 AM 71.6 °F - 68.0 °F 88% 30.08 in 7.0 mi Calm Calm - N/A   Clear
3:55 AM 71.6 °F - 68.0 °F 88% 30.09 in 6.0 mi Calm Calm - N/A   Clear
4:15 AM 71.6 °F - 68.0 °F 88% 30.08 in 6.0 mi Calm Calm - N/A   Clear
4:35 AM 71.6 °F - 68.0 °F 88% 30.08 in 5.0 mi Calm Calm - N/A   Clear
4:55 AM 71.6 °F - 66.2 °F 83% 30.08 in 5.0 mi Calm Calm - N/A   Clear
5:15 AM 71.6 °F - 66.2 °F 83% 30.08 in 5.0 mi Calm Calm - N/A   Clear
5:35 AM 71.6 °F - 66.2 °F 83% 30.08 in 4.0 mi Calm Calm - N/A   Clear
5:55 AM 71.6 °F - 68.0 °F 88% 30.09 in 5.0 mi Calm Calm - N/A   Partly Cloudy
6:15 AM 71.6 °F - 68.0 °F 88% 30.10 in 5.0 mi Calm Calm - N/A   Clear
6:35 AM 71.6 °F - 68.0 °F 88% 30.09 in 5.0 mi Calm Calm - N/A   Clear
6:55 AM 71.6 °F - 68.0 °F 88% 30.10 in 5.0 mi Calm Calm - N/A   Clear
7:15 AM 71.6 °F - 68.0 °F 88% 30.11 in 2.5 mi Calm Calm - N/A   Clear
7:35 AM 71.6 °F - 68.0 °F 88% 30.11 in 4.0 mi Calm Calm - N/A   Clear
7:55 AM 73.4 °F - 68.0 °F 83% 30.11 in 4.0 mi Calm Calm - N/A   Clear
8:15 AM 73.4 °F - 68.0 °F 83% 30.12 in 5.0 mi Calm Calm - N/A   Haze
8:35 AM 75.2 °F - 68.0 °F 78% 30.12 in 5.0 mi Calm Calm - N/A   Haze
8:55 AM 75.2 °F - 68.0 °F 78% 30.13 in 5.0 mi Calm Calm - N/A   Haze
9:15 AM 77.0 °F - 69.8 °F 78% 30.13 in 5.0 mi Calm Calm - N/A Rain Light Rain
9:35 AM 77.0 °F - 68.0 °F 74% 30.13 in 5.0 mi Calm Calm - N/A   Haze
9:55 AM 77.0 °F - 69.8 °F 78% 30.14 in 5.0 mi SE 4.6 mph - N/A   Haze
10:15 AM 80.6 °F 83.9 °F 69.8 °F 70% 30.14 in 6.0 mi Calm Calm - N/A   Haze
10:35 AM 82.4 °F 85.4 °F 68.0 °F 62% 30.13 in 6.0 mi Calm Calm - N/A   Haze
10:55 AM 84.2 °F 87.3 °F 68.0 °F 58% 30.13 in 7.0 mi Calm Calm - N/A   Clear
11:15 AM 86.0 °F 89.4 °F 68.0 °F 55% 30.13 in 7.0 mi Calm Calm - N/A   Clear
11:35 AM 87.8 °F 91.4 °F 68.0 °F 52% 30.13 in 8.0 mi Calm Calm - N/A   Clear
11:55 AM 89.6 °F 93.4 °F 68.0 °F 49% 30.13 in 8.0 mi Calm Calm - N/A   Clear
12:15 PM 89.6 °F 93.4 °F 68.0 °F 49% 30.12 in 9.0 mi ESE 3.5 mph - N/A   Clear
12:35 PM 89.6 °F 93.4 °F 68.0 °F 49% 30.12 in 8.0 mi Calm Calm - N/A   Clear
12:55 PM 91.4 °F 95.4 °F 68.0 °F 46% 30.11 in 8.0 mi Calm Calm - N/A   Clear
1:15 PM 95.0 °F 99.5 °F 68.0 °F 41% 30.10 in 8.0 mi SW 4.6 mph - N/A   Clear
1:35 PM 91.4 °F 95.4 °F 68.0 °F 46% 30.09 in 9.0 mi SSW 5.8 mph - N/A   Clear
1:55 PM 93.2 °F 97.7 °F 68.0 °F 44% 30.08 in 9.0 mi WSW 5.8 mph - N/A   Clear
2:15 PM 95.0 °F 98.5 °F 66.2 °F 39% 30.07 in 9.0 mi Calm Calm - N/A   Clear
2:35 PM 96.8 °F 100.7 °F 66.2 °F 37% 30.06 in 9.0 mi NE 4.6 mph - N/A   Clear
2:55 PM 98.6 °F 104.1 °F 68.0 °F 37% 30.05 in 9.0 mi North 3.5 mph - N/A   Clear
3:15 PM 98.6 °F 102.8 °F 66.2 °F 35% 30.04 in 9.0 mi SE 8.1 mph - N/A   Scattered Clouds
3:35 PM 98.6 °F 101.0 °F 64.4 °F 32% 30.03 in 10.0 mi ESE 3.5 mph - N/A   Partly Cloudy
3:55 PM 95.0 °F 98.5 °F 66.2 °F 39% 30.03 in 9.0 mi NNW 5.8 mph - N/A   Mostly Cloudy
4:15 PM 91.4 °F 98.4 °F 71.6 °F 52% 30.03 in 3.0 mi NNE 6.9 mph - 0.05 in Rain Rain
4:35 PM 75.2 °F - 69.8 °F 83% 30.08 in 1.8 mi East 11.5 mph 23.0 mph 0.14 in Rain Heavy Rain
4:55 PM 73.4 °F - 68.0 °F 83% 30.06 in 0.2 mi WSW 8.1 mph - 0.73 in Rain Heavy Rain
5:15 PM 73.4 °F - 68.0 °F 83% 30.04 in 9.0 mi Calm Calm - 0.01 in Rain Light Rain
5:35 PM 75.2 °F - 71.6 °F 89% 30.03 in 7.0 mi North 5.8 mph - 0.01 in   Clear
5:55 PM 75.2 °F - 71.6 °F 89% 30.03 in 7.0 mi Calm Calm - 0.01 in   Clear
6:15 PM 75.2 °F - 71.6 °F 89% 30.04 in 8.0 mi Calm Calm - N/A   Clear
6:35 PM 75.2 °F - 71.6 °F 89% 30.04 in 6.0 mi NW 3.5 mph - N/A   Clear
6:55 PM 75.2 °F - 71.6 °F 89% 30.05 in 5.0 mi Calm Calm - N/A   Clear
7:15 PM 75.2 °F - 71.6 °F 89% 30.05 in 6.0 mi Calm Calm - N/A   Clear
7:35 PM 75.2 °F - 71.6 °F 89% 30.04 in 4.0 mi Calm Calm - N/A   Clear
7:55 PM 73.4 °F - 71.6 °F 94% 30.04 in 4.0 mi Calm Calm - N/A   Clear
8:15 PM 73.4 °F - 71.6 °F 94% 30.05 in 5.0 mi Calm Calm - N/A   Clear
8:35 PM 73.4 °F - 71.6 °F 94% 30.05 in 3.0 mi NNW 3.5 mph - N/A   Clear
8:55 PM 73.4 °F - 71.6 °F 94% 30.05 in 4.0 mi Calm Calm - N/A   Clear
9:15 PM 73.4 °F - 71.6 °F 94% 30.06 in 3.0 mi Calm Calm - N/A   Clear
9:35 PM 73.4 °F - 71.6 °F 94% 30.06 in 2.5 mi Calm Calm - N/A   Clear
9:55 PM 73.4 °F - 71.6 °F 94% 30.07 in 2.5 mi Calm Calm - N/A   Clear
10:15 PM 73.4 °F - 71.6 °F 94% 30.07 in 2.0 mi Calm Calm - N/A   Clear
10:35 PM 73.4 °F - 69.8 °F 88% 30.07 in 1.8 mi Calm Calm - N/A   Clear
10:55 PM 73.4 °F - 71.6 °F 94% 30.07 in 2.0 mi Calm Calm - N/A   Clear
11:15 PM 71.6 °F - 69.8 °F 94% 30.07 in 1.2 mi Calm Calm - N/A   Clear
11:35 PM 71.6 °F - 69.8 °F 94% 30.07 in 3.0 mi Calm Calm - N/A   Clear
11:55 PM 71.6 °F - 69.8 °F 94% 30.06 in 2.5 mi Calm Calm - N/A   Clear